Погода Пировское

Погода Пировское : погода сейчас, прогноз погоды и архив. Всё, что Вы хотите узнать о погоде Пировское!

Поиск расширенной информации на нашем сайте:

Другие новости

Новости СМИ2

Главная страница сайта

Новости сайта

03.07.2017

Напоминаем, что на нашем специализированном сайте Метеоцентр.Азия вы можете получить высокодетализированные автоматические прогнозы погоды по пунктам России, СНГ и мира в авиационном формате (включающие направление и скорость ветра, видимость, явления погоды, количество и форму облачности, нижнюю и верхнюю границу облачности).

Рекомендуем: хостел Москва недорого - на сайте

Погода Пировское - сегодня

Время (UTC), дата Ветер
(°,м/с) 
Видим.   Явления Облачность Т
(°С)
Тd
(°С)
f(%) Тe
(°С)
Pmin
(гПа)
dP
(гПа)
Po
(мм)
O2
(г/м3)
Тmin Tmax R s Состояние
почвы
21 17.09.17 150 (ЮВ) н/о    н/о 
+5 +4.7 98 +4  1009.9  -3.8  741  292           
00 18.09.17 160 (Ю) н/о    н/о 
+6 +5.9 99 +6  1006.5  -3.2  738  290  +4.6         
03 18.09.17 200 (Ю) н/о    н/о 
+9.8 +9.6 99 +11  1003.8  -2.3  737  285           
06 18.09.17 240 (ЮЗ) н/о    н/о 
+13.1 +11.7 91 +16  1002.8  -0.7  736  281           
09 18.09.17 280 (З) н/о    н/о 
+13.3 +11 86 +16  1005  2.1  738  281           
12 18.09.17 290 (З) н/о    н/о 
+11.5 +8.8 83 +13  1006.4  1.2  739  284    +14       
15 18.09.17 тихо ()   н/о    н/о 
+6 +5.8 99 +6  1008  1.2  740  291           
18 18.09.17 тихо ()   н/о    н/о 
+4.1 +4 99 +4  1007.9  -0.2  739  293           
21 18.09.17 тихо ()   н/о    н/о 
+5.3 +5.2 99 +5  1006.3  -1.5  738  291           
00 19.09.17 030 (СВ) н/о    н/о 
+6.7 +6.6 99 +8  1005.4  -0.8  738  289  +4.1         
03 19.09.17 070 (В) н/о    н/о 
+9.4 +9.3 99 +11  1005.2  738  286           
09 19.09.17 100 (В) н/о    н/о 
+11 +10.8 99 +15  1007.4  739  284           
12 19.09.17 040 (СВ) н/о    н/о 
+10 +9.8 99 +12  1008.1  0.6  740  286    +11.3       
15 19.09.17 070 (В) н/о    н/о 
+8.9 +8.7 99 +10  1008.9  0.7  740  287           
18 19.09.17 тихо ()   н/о    н/о 
+8.1 +8 99 +8  1009.1  0.2  741  288           
21 19.09.17 тихо ()   н/о    н/о 
+8.2 +8.1 99 +8  1009.5  0.4  741  288           
00 20.09.17 320 (СЗ) н/о    н/о 
+7.9 +7.7 99 +9  1010.8  1.2  742  289  +7.9         
03 20.09.17 010 (С) н/о    н/о 
+8.8 +8.6 99 +10  1012  1.2  743  288  +7.8         
06 20.09.17 340 (С) н/о    н/о 
+10.9 +9 88 +12  1013.1  1.3  744  287           
09 20.09.17 350 (С) н/о    н/о 
+11.8 +8.4 80 +12  1013.9  0.8  744  286           
12 20.09.17 300 (СЗ) н/о    н/о 
+9.9 +7.5 85 +11  1015.4  1.4  745  289    +12       
15 20.09.17 210 (ЮЗ) н/о    н/о 
+8 +7.9 99 +9  1016.4  0.8  746  291           
18 20.09.17 тихо ()   н/о    н/о 
+6.3 +6.2 99 +6  1016.3  0.8  746  293           
21 20.09.17 тихо ()   н/о    н/о 
+6.5 +6.4 99 +7  1015.4  -0.9  745  292           
00 21.09.17 тихо ()   н/о    н/о 
+6.9 +6.8 99 +7  1014.5  -0.8  744  291  +6.2         
Время (UTC), дата Ветер
(°,м/с) 
Видим.   Явления Облачность Т
(°С)
Тd
(°С)
f(%) Тe
(°С)
Pmin
(гПа)
dP
(гПа)
Po
(мм)
O2
(г/м3)
Тmin Tmax R s Состояние
почвы

Для получения пояснительной информации подведите курсор к названию столбца.

ПОГОДА Пировское - архив

Всё, что Вы хотите узнать о погоде Пировское - удобно и подробно!

Выберите нужную дату (начиная с 1 января 2015* года) и нажмите кнопку "Найти".
Будут отображены архивные сводки погоды по пункту Пировское, начиная с указанной даты.


Отображать данные в формате CSV (для использования в таблицах Excel)


Внимание! Наш архив погоды предназначен исключительно для личного некоммерческого использования в познавательных целях. Если Вам необходимы официальные справки о состоянии погоды (для производственных, юридических, коммерческих и т.п. целей), обращайтесь в органы Росгидромета.

*Примечание: данная дата относится к архиву по метеостанциям СССР (Россия, СНГ, Балтия).
Архив по метеостанциям Зарубежной Европы и Азии (кроме Китая) хранится 10 дней, по другим регионам земного шара (Китай, Африка, Америка, Австралия, Океания) - 1 день.

Пировское - район местоположения метеостанции


Название, широта, долгота, высота метеостанции:
Пировское 57.6°ш. 92.3°д. 179 м над ур. моря [Российская Федерация]

Дополнительная информация

В oтличие oт бoльшинства пoгoдных сайтoв мы публикуем пoдрoбную метеoинфoрмацию в детальнoм прoфессиoнальнoм фoрмате.

Характеристики температуры и влажнoсти вoздуха измеряются на высoте 2 м в тени вдали oт зданий и деревьев.
Скoрoсть ветра измеряется на высoте 10 м (на урoвне рoста челoвека скoрoсть ветра ниже в 1.5-2 раза). Если метеoстанция нахoдится в гoрoде или в лесу, тo скoрoсть ветра занижена на 2-4 м/с пo сравнению с oткрытым местoм. Скoрoсть ветра над акватoриями крупных рек и oзёр, а также на вершинах хoлмoв на 2-5 м/с выше, чем в oбычных услoвиях.
Атмoсфернoе давление в разных тoчках местнoсти мoжет значительнo oтличаться oт давления на метеoстанции, в зависимoсти oт услoвий рельефа (при пoдъёме на 10 м давление пoнижается примернo на 1 мм рт.ст.).